Bismarck, ND

6:28 AM CST on February 26, 2017 (GMT -0600)
Bismarck Municipal

Weather History for KBIS - August, 2013

Change the Weather History Date:

Tuesday, August 20, 2013

  Actual Average Record
Temperature  
Mean Temperature 81 °F 69 °F  
Max Temperature 102 °F 83 °F 102 °F (2013)
Min Temperature 59 °F 55 °F 34 °F (1907)
Degree Days  
Heating Degree Days 0 1  
Month to date heating degree days 6 17  
Since 1 June heating degree days 114 127  
Since 1 July heating degree days 28 34  
Cooling Degree Days 16 5  
Month to date cooling degree days 76 130  
Year to date cooling degree days 357 434  
Since 1 June cooling degree days 345 417  
Growing Degree Days 30 (Base 50)    
Moisture  
Dew Point 55 °F    
Average Humidity 51    
Maximum Humidity 84    
Minimum Humidity 17    
Precipitation  
Precipitation 0.00 in 0.07 in 2.00 in (1879)
Month to date precipitation 0.29 1.53  
Year to date precipitation 15.23 13.06  
Snow  
Snow 0.00 in 0.00 in 0.00 in (2002)
Month to date snowfall 0.0 0.0  
Since 1 June snowfall 0.0 0.0  
Since 1 July snowfall 0.0 0.0  
Snow Depth 0.00 in    
Sea Level Pressure  
Sea Level Pressure 29.76 in    
Wind  
Wind Speed 7 mph (West)    
Max Wind Speed 18 mph    
Max Gust Speed 24 mph    
Visibility 10 miles    
Events      
T = Trace of Precipitation, MM = Missing Value Source: NWS Daily Summary

Daily Weather History Graph

Daily Weather History Graph

Search for Another Location

Airport or City:

Trip Planner

Search our weather history database for the weather conditions in past years. The results will help you decide how hot, cold, wet, or windy it might be!

Date:

Astronomy

Aug. 20, 2013 Rise Set
Actual Time 6:47 AM CDT 8:44 PM CDT
Civil Twilight 6:14 AM CDT 9:16 PM CDT
Nautical Twilight 5:34 AM CDT 9:56 PM CDT
Astronomical Twilight 4:50 AM CDT 10:40 PM CDT
Moon 8:12 PM CDT (8/20) 6:21 AM CDT (8/20)
Length of Visible Light 15h 01m
Length of Day
13h 56m
Full, 100% of the Moon is Illuminated
Aug 20
Full
Aug 20
Full
Aug 28
Last Quarter
Sep 5
New
Sep 12
First Quarter

Hourly Weather History & Observations

Time (CDT) Temp. Heat Index Dew Point Humidity Pressure Visibility Wind Dir Wind Speed Gust Speed Precip Events Conditions
12:52 AM 79.0 °F - 53.1 °F 40% 29.77 in 10.0 mi SW 9.2 mph - N/A   Clear
1:52 AM 73.0 °F - 55.0 °F 53% 29.78 in 10.0 mi SW 5.8 mph - N/A   Clear
2:52 AM 72.0 °F - 55.9 °F 57% 29.77 in 10.0 mi West 3.5 mph - N/A   Clear
3:52 AM 66.9 °F - 55.9 °F 68% 29.77 in 10.0 mi Calm Calm - N/A   Clear
4:52 AM 63.0 °F - 57.0 °F 81% 29.77 in 10.0 mi ESE 5.8 mph - N/A   Clear
5:52 AM 64.0 °F - 57.0 °F 78% 29.77 in 10.0 mi Calm Calm - N/A   Clear
6:52 AM 60.1 °F - 55.9 °F 86% 29.78 in 8.0 mi East 4.6 mph - N/A   Clear
7:52 AM 64.0 °F - 57.9 °F 80% 29.78 in 6.0 mi ENE 5.8 mph - N/A   Haze
8:52 AM 72.0 °F - 57.9 °F 61% 29.78 in 10.0 mi Calm Calm - N/A   Clear
9:52 AM 79.0 °F - 60.1 °F 52% 29.77 in 10.0 mi Calm Calm - N/A   Clear
10:52 AM 84.0 °F 84.4 °F 61.0 °F 46% 29.76 in 10.0 mi SSE 4.6 mph - N/A   Clear
11:52 AM 88.0 °F 88.4 °F 62.1 °F 42% 29.75 in 10.0 mi SW 5.8 mph - N/A   Clear
12:52 PM 93.0 °F 93.0 °F 61.0 °F 34% 29.73 in 10.0 mi WSW 11.5 mph - N/A   Clear
1:52 PM 97.0 °F 96.9 °F 60.1 °F 29% 29.73 in 10.0 mi WSW 11.5 mph - N/A   Clear
2:52 PM 99.0 °F 98.1 °F 57.9 °F 25% 29.72 in 10.0 mi WSW 10.4 mph - N/A   Clear
3:52 PM 100.9 °F - 48.0 °F 17% 29.71 in 10.0 mi WSW 13.8 mph - N/A   Clear
4:52 PM 100.9 °F - 50.0 °F 18% 29.70 in 10.0 mi NW 13.8 mph - N/A   Clear
5:52 PM 98.1 °F - 52.0 °F 21% 29.71 in 10.0 mi NNW 15.0 mph - N/A   Clear
6:52 PM 95.0 °F - 48.9 °F 21% 29.73 in 10.0 mi NW 16.1 mph - N/A   Clear
7:52 PM 90.0 °F - 51.1 °F 26% 29.73 in 10.0 mi NNW 11.5 mph - N/A   Clear
8:52 PM 86.0 °F 84.0 °F 53.1 °F 32% 29.75 in 10.0 mi NW 5.8 mph - N/A   Clear
9:52 PM 82.0 °F 81.3 °F 54.0 °F 38% 29.77 in 10.0 mi West 4.6 mph - N/A   Clear
10:52 PM 80.1 °F 79.9 °F 53.1 °F 39% 29.79 in 10.0 mi NW 6.9 mph - N/A   Clear
11:52 PM 77.0 °F - 55.0 °F 47% 29.81 in 10.0 mi North 5.8 mph - N/A   Clear